This demonstration page uses our WeatherBlox Daily Observations layout. Learn more.

Left ArrowRight Arrow

Hourly Observations for July 26, 2018

Temp ( °F °C ) Dew Point ( °F °C ) Humidity (%) Winds ( mph kmh ) Pressure ( in mb ) Visibility ( mi km ) Precip ( " mm )
12:53 am 00:53 Cloudy 86 30 52 11.1 31 31 N 5 7 29.91 1013 10 16 0.00 0.00
1:53 am 01:53 Cloudy 82 27.8 54 12.2 38 38 NW 5 7 29.91 1013 9 14 0.00 0.00
2:53 am 02:53 Cloudy 80 26.7 55 12.8 42 42 NW 3 6 29.91 1013 9 14 0.00 0.00
3:53 am 03:53 Cloudy 79 26.1 53 11.7 41 41 NW 3 6 29.91 1013 10 16 0.00 0.00
4:53 am 04:53 Cloudy 79 26.1 54 12.2 42 42 Calm 29.91 1013 10 16 0.00 0.00
5:53 am 05:53 Cloudy 77 25 57 13.9 50 50 Calm 29.91 1013 8 13 0.00 0.00
6:53 am 06:53 Cloudy with Haze 77 25 56 13.3 48 48 Calm 29.91 1013 6 10 0.00 0.00
7:53 am 07:53 Mostly Cloudy with Haze 80 26.7 57 13.9 45 45 Calm 29.91 1013 6 10 0.00 0.00
8:53 am 08:53 Cloudy with Haze 90 32.2 56 13.3 32 32 NNW 6 9 29.91 1013 4 6 0.00 0.00
9:53 am 09:53 Cloudy with Haze 96 35.6 52 11.1 23 23 N 10 17 29.90 1013 3 5 0.00 0.00
10:53 am 10:53 Cloudy with Haze 100 37.8 52 11.1 20 20 NNW 8 13 29.88 1012 3 5 0.00 0.00
11:22 am 11:22 Cloudy with Haze 102 38.9 52 11.1 19 19 VRB 7 11 29.88 1012 3 5 0.00 0.00
11:53 am 11:53 Cloudy with Haze 103 39.4 52 11.1 18 18 NNW 7 11 29.87 1012 3 5 0.00 0.00
12:31 pm 12:31 Cloudy with Haze 106 41.1 50 10 15 15 N 8 13 29.85 1011 3 4 0.00 0.00
12:37 pm 12:37 Cloudy with Haze 106 41.1 51 10.6 16 16 VRB 5 7 29.85 1011 3 5 0.00 0.00
12:53 pm 12:53 Mostly Cloudy with Haze 107 41.7 50 10 15 15 VRB 5 7 29.85 1011 3 5 0.00 0.00
1:53 pm 13:53 Hazy 110 43.3 46 7.8 12 12 NNE 6 9 29.83 1010 4 6 0.00 0.00
2:53 pm 14:53 Mostly Cloudy with Haze 112 44.4 44 6.7 10 10 NNE 6 9 29.81 1010 3 5 0.00 0.00
3:53 pm 15:53 Cloudy with Haze 113 45 39 3.9 8 8 E 8 13 29.79 1009 4 6 0.00 0.00
4:53 pm 16:53 Hazy 113 45 35 1.7 7 7 ESE 3 6 29.76 1008 5 8 0.00 0.00
5:53 pm 17:53 Cloudy with Haze 109 42.8 37 2.8 8 8 Calm 29.75 1008 5 8 0.00 0.00
6:53 pm 18:53 Mostly Cloudy with Haze 104 40 59 15 23 23 SSE 9 15 29.76 1008 5 8 0.00 0.00
7:53 pm 19:53 Hazy 96 35.6 68 20 40 40 SSE 12 19 29.77 1008 6 10 0.00 0.00
8:53 pm 20:53 Cloudy with Smoke 94 34.4 64 17.8 37 37 S 10 17 29.77 1008 7 11 0.00 0.00
9:53 pm 21:53 Cloudy with Smoke 90 32.2 66 18.9 45 45 NE 6 9 29.81 1009 9 14 0.00 0.00
10:53 pm 22:53 Cloudy with Smoke 89 31.7 67 19.4 48 48 SE 6 9 29.82 1010 10 16 0.00 0.00
11:53 pm 23:53 Cloudy with Smoke 90 32.2 63 17.2 41 41 Calm 29.83 1010 10 16 0.00 0.00

Powered by AerisWeather